#timestamp,LO_Frequency,Hit,StdDev 
1663959615.6,286047000.4,N
1663959635.4,286047002.5,N
1663959655.3,286047002.5,N
1663959675.1,286047004.0,N
1663959695.9,286047001.8,N
1663959715.7,286047002.1,N
1663959735.5,286047001.3,N
1663959755.4,286047004.0,N
1663959775.2,286047001.7,N
1663959795.0,286047000.1,N
1663959795.9,286047000.1,N
1663959815.8,286047002.3,N
1663959835.6,286047002.6,N
1663959855.5,286047001.6,N
1663959875.3,286047001.5,N
1663959895.1,286047001.6,N
1663959915.9,286047002.0,N
1663959935.7,286047002.5,N
1663959955.5,286047002.2,N
1663959975.4,286047004.0,Y
1663959995.2,286047004.1,P
1663960015.1,286047004.0,P
1663960016.0,286047004.0,P
1663960035.8,286047002.0,N
1663960055.6,286047002.2,N
1663960075.5,286047002.9,N
1663960095.3,286047005.9,Y
1663960115.2,286047001.6,P
1663960135.9,286046999.8,N
1663960155.7,286046999.0,N
1663960175.6,286046997.3,N
1663960195.4,286046997.7,N
1663960215.2,286046997.6,N
1663960235.1,286046997.1,N
1663960236.0,286046997.1,N
1663960255.8,286046997.8,N
1663960275.7,286046996.8,N
1663960295.5,286046997.0,N
1663960315.3,286046999.4,N
1663960335.2,286046998.1,N
1663960355.0,286046998.2,N
1663960355.9,286046998.2,N
1663960375.8,286046999.9,N
1663960395.6,286047002.3,N
1663960415.4,286046998.4,N
1663960435.3,286046997.0,N
1663960455.1,286046997.0,N
1663960475.8,286046997.3,N
1663960495.7,286046997.9,N
1663960515.5,286046996.5,N
1663960535.4,286046998.8,N
1663960555.2,286046998.2,N
1663960575.0,286046999.6,N
1663960575.9,286046999.6,N
1663960595.8,286046998.0,N
1663960615.6,286046996.9,N
1663960635.5,286046998.3,N
1663960655.3,286046996.9,N
1663960675.1,286046999.2,N
1663960695.9,286046998.5,N
1663960715.7,286046998.6,N
1663960735.5,286046998.6,N
1663960755.4,286046997.3,N
1663960775.2,286046997.2,N
1663960795.1,286046997.2,N
1663960796.0,286046997.2,N
1663960815.8,286046995.1,Y
1663960835.6,286047001.2,P
1663960855.5,286047000.2,N
1663960875.3,286046998.5,N
1663960895.1,286046998.9,N
1663960915.9,286046997.4,N
1663960935.7,286046997.8,N
1663960955.6,286046996.9,N
1663960975.4,286046998.4,N
1663960995.2,286046998.2,N
1663961015.1,286047001.2,N
1663961016.0,286047001.2,N
1663961035.8,286047000.3,N
1663961055.6,286046999.9,N
1663961075.5,286047002.3,N
1663961095.3,286047000.0,N
1663961115.2,286046999.7,N
1663961135.9,286047001.9,N
1663961155.7,286047004.4,N
1663961175.6,286047002.5,N
1663961195.4,286047002.2,N
1663961215.3,286047003.9,N
1663961235.1,286047003.8,N
1663961236.0,286047003.8,N
1663961255.8,286047002.1,N
1663961275.7,286047002.5,N
1663961295.5,286046999.8,N
1663961315.3,286046999.9,N
1663961335.2,286047001.0,N
1663961355.0,286047002.6,N
1663961355.9,286047002.6,N
1663961375.8,286047003.5,N
1663961395.6,286047004.3,N
1663961415.4,286047004.4,N
1663961435.3,286047004.3,N
1663961455.1,286047003.6,N
1663961475.8,286047003.0,N
1663961495.7,286047005.9,N
1663961515.5,286047006.0,Y
1663961535.4,286047001.9,P
1663961555.2,286046999.7,P
1663961575.0,286047000.7,N
1663961575.9,286047000.7,N
1663961595.8,286047001.0,N
1663961615.6,286047000.9,N
1663961635.4,286047000.2,N
1663961655.3,286047002.7,Y
1663961675.1,286047002.5,P
1663961695.9,286047002.7,P
1663961715.7,286046998.4,N
1663961735.5,286046999.4,N
1663961755.4,286046999.0,N
1663961775.2,286046998.1,N
1663961795.0,286047001.1,N
1663961796.0,286047001.1,N
1663961815.8,286047000.0,N
1663961835.6,286047000.4,N
1663961855.5,286047000.8,N
1663961875.3,286046998.7,N
1663961895.1,286046998.1,N
1663961915.9,286046998.7,N
1663961935.7,286046998.9,N
1663961955.6,286046997.5,N
1663961975.4,286046997.7,N
1663961995.2,286046996.5,N
1663962015.1,286046997.5,N
1663962016.0,286046997.5,N
1663962035.8,286046997.1,N
1663962055.6,286046999.4,N
1663962075.5,286047001.1,N
1663962095.3,286047000.6,N
1663962115.2,286047001.1,N
1663962135.9,286047001.1,N
1663962155.7,286047000.6,N
1663962175.6,286047000.9,N
1663962195.4,286047000.2,N
1663962215.2,286047000.8,N
1663962235.1,286047000.7,N
1663962236.0,286047000.7,N
1663962255.8,286046998.2,N
1663962275.7,286046998.1,N
1663962295.5,286046998.1,N
1663962315.3,286046996.5,N
1663962335.2,286046996.5,N
1663962355.0,286046996.7,N
1663962355.9,286046996.7,N
1663962375.7,286046996.6,N
1663962395.6,286046998.7,N
1663962415.4,286046998.1,N
1663962435.3,286046998.5,N
1663962455.1,286046999.3,N
1663962456.0,286046999.3,N
1663962475.8,286046999.2,N
1663962495.7,286046998.5,N
1663962515.5,286046999.4,N
1663962535.3,286046997.1,N
1663962555.2,286046997.8,N
1663962575.0,286046997.8,N
1663962575.9,286046997.8,N
1663962595.8,286046996.7,N
1663962615.6,286046998.3,N
1663962635.4,286046998.2,N
1663962655.3,286047001.2,N
1663962675.1,286046999.9,N
1663962695.9,286047000.7,N
1663962715.7,286047000.9,N
1663962735.5,286047001.1,N
1663962755.4,286047000.5,N
1663962775.2,286046998.2,N
1663962795.0,286046999.3,N
1663962795.9,286046999.3,N
1663962815.8,286047001.2,N
1663962835.6,286047001.1,N
1663962855.5,286047000.1,N
1663962875.3,286046998.8,N
1663962895.1,286046999.4,N
1663962915.9,286046998.3,N
1663962935.7,286046998.6,N
1663962955.5,286047002.8,N
1663962975.4,286046998.4,N
1663962995.2,286046998.4,N
1663963015.1,286046998.7,N
1663963016.0,286046998.7,N
1663963035.8,286046999.3,N
1663963055.6,286046997.7,N
1663963075.5,286046995.1,Y
1663963095.3,286046996.8,P
1663963115.2,286046998.8,N
1663963135.9,286047001.1,N
1663963155.7,286046998.8,N
1663963175.6,286047000.0,N
1663963195.4,286046999.3,N
